Regional Weather Roundup
Issued by NWS State College, PA

Home | Current Version | Previous Version | Text Only | Print | Product List | Glossary On
Versions: 1 2 3 4 5 6 7 8 9 10 11 12 13 14 15 16 17 18 19 20 21 22 23 24 25 26 27 28 29 30 31 32 33 34 35 36 37 38 39 40 41 42 43 44 45 46 47 48 49 50
000
ASUS41 KCTP 220103
RWRCTP

REGIONAL WEATHER ROUNDUP
NATIONAL WEATHER SERVICE STATE COLLEGE PA
900 PM EDT TUE OCT 21 2014

Note: "fair" indicates few or no clouds below 12,000 feet with no
significant weather and/or obstructions to visibility.

* = STATION THAT DOES NOT REPORT PRECIPITATION /E.G. RAIN...SNOW...ETC/
    THUNDER OR FOG.

PAZ002>004-007>009-013>016-020>023-029>032-220200-
WESTERN PENNSYLVANIA

CITY           SKY/WX    TMP DP  RH WIND       PRES   REMARKS
ERIE           CLOUDY    49  44  83 NE15G25   30.04R
MEADVILLE      CLOUDY    47  44  90 N6        30.01R
FRANKLIN*      CLOUDY    46  43  87 CALM      30.01R
NEW CASTLE       N/A     47  47 100 CALM      30.02R
BEAVER COUNTY  CLOUDY    46  45  93 NW6       30.00R
BUTLER*        CLOUDY    46  43  87 NW5       30.01S
PITTSBURGH INT CLOUDY    48  45  89 NW12      30.00R
PITTSBURGH     CLOUDY    48  42  80 NW8       29.99R
INDIANA*       CLOUDY    48  46  93 VRB5      30.01R FOG
LATROBE        CLOUDY   N/A N/A N/A NW9       30.01R
WASHINGTON CO* CLOUDY    46  43  87 W8        30.02R
$$

PAZ004>006-010>012-017>019-024>028-033>037-041-042-045-046-049>053-220200-
CENTRAL PENNSYLVANIA

CITY           SKY/WX    TMP DP  RH WIND       PRES   REMARKS
BRADFORD       CLOUDY    47  44  90 N5        29.96R
DUBOIS         CLOUDY    47  46  97 N6        29.95R
CLEARFIELD     CLOUDY    49  47  93 NW3       29.95R
JOHNSTOWN      CLOUDY    45  43  93 NW10      29.94S
ALTOONA        LGT RAIN  50  45  83 NE3       29.94R
STATE COLLEGE  CLOUDY    50  48  93 CALM      29.94R
WILLIAMSPORT   PTCLDY    50  46  86 CALM      29.92R
SELINSGROVE    CLOUDY    53  47  79 N5        29.91R
FT INDIANTOWN  CLOUDY    56  52  86 CALM      29.90R
CAPITAL CITY   CLOUDY    54  48  80 W6        29.91R
HARRISBURG     CLOUDY    54  48  80 NW10      29.90R
YORK           LGT RAIN  53  50  89 W7        29.90R
$$

PAZ038>040-043-044-047-048-054-055-060>062-067>071-220200-
EASTERN PENNSYLVANIA

CITY           SKY/WX    TMP DP  RH WIND       PRES   REMARKS
SCRANTON       CLOUDY    53  50  89 E3        29.92R
MOUNT POCONO   CLOUDY    50  47  89 N6        29.90S
ALLENTOWN      MOCLDY    55  49  80 NE7       29.89R
QUAKERTOWN*    PTCLDY    54  50  87 NE3       29.89R
READING        MOCLDY    55  48  77 N3        29.88R
LANCASTER      CLOUDY    57  48  72 NW6       29.89R
COATESVILLE    MOCLDY    55  48  76 N6        29.88R
POTTSTOWN      CLOUDY    58  48  69 NE5       29.88R
BLUE BELL      PTCLDY    59  50  72 CALM      29.85S
DOYLESTOWN     MOCLDY    56  51  84 N6        29.87R
WILLOW GROVE   NOT AVBL
NORTH PHILA    LGT RAIN  60  51  72 NE8       29.88R
PHILADELPHIA   CLOUDY    64  48  56 N7        29.86R
$$



USA.gov is the U.S. government's official web portal to all federal, state and local government web resources and services.